Flag for Isle of Man Weather past 2 weeks in Ramsey, Isle of Man

Now
48 °F

Clear.


Feels Like: 44 °F
Forecast: 49 / 51 °F
Wind: 9 mph from Southwest

Location: Isle Of Man / Ronaldsway Airport


UV Index: 0 (Low)

Visibility: 10 mi


Pressure: 30.04 "Hg

Humidity: 100%

Dew point: 48 °F

Location of RamseyLocation

Historic Weather in Ramsey

°F

Ramsey temperature yesterday

Maximum temperature yesterday: 52 °F (at 11:50 AM)
Minimum temperature yesterday: 46 °F (at 5:20 AM)
Average temperature yesterday: 50 °F

Past Weeks' High & Low Weather Summary

 TemperatureHumidityPressure
High64 °F (Apr 21, 2:50 PM)100% (Apr 11, 4:50 AM)30.39 "Hg (Apr 11, 4:50 AM)
Low39 °F (Apr 11, 4:50 AM)47% (Apr 14, 3:20 PM)29.71 "Hg (Apr 22, 1:50 PM)
Average50 °F78%30.07 "Hg
* Reported Apr 9 3:50 AM — Apr 24 3:50 AM, Ramsey, Weather by CustomWeather, © 2014

Note: Actual official high and low records may vary slightly from our data, if they occured in-between our weather recording intervals... More about our weather records

Advertising

Historic Weather Conditions — Data for Previous 24 hours

 ConditionsComfort  
Time TempWeatherWind HumidityBarometerVisibility
3:50 AM
Apr 24
50 °FPassing clouds.9 mph94%30.04 "HgN/A
2:50 AM48 °FPassing clouds.8 mph100%30.04 "HgN/A
1:50 AM50 °FPassing clouds.10 mph94%30.04 "HgN/A
12:50 AM50 °FPassing clouds.7 mph94%30.04 "HgN/A
11:50 PM
Apr 23
48 °FPassing clouds.10 mph100%30.01 "HgN/A
10:50 PM48 °FPassing clouds.13 mph100%30.01 "HgN/A
9:50 PM48 °FPassing clouds.10 mph100%30.01 "HgN/A
8:50 PM48 °FPassing clouds.9 mph100%29.98 "HgN/A
8:20 PM48 °FPassing clouds.9 mph100%29.98 "HgN/A
7:50 PM50 °FPassing clouds.7 mph94%29.95 "HgN/A
7:20 PM50 °FPassing clouds.8 mph94%29.95 "HgN/A
6:50 PM52 °FLight rain. Passing clouds.6 mph72%29.95 "HgN/A
6:20 PM50 °FLight rain. Passing clouds.2 mph94%29.95 "HgN/A
5:50 PM52 °FPassing clouds.6 mph94%29.92 "HgN/A
5:20 PM52 °FPassing clouds.7 mph94%29.92 "HgN/A
4:50 PM52 °FSleet. Fog.6 mph100%29.92 "HgN/A
4:20 PM52 °FRain. Scattered clouds.6 mph100%29.92 "Hg6 mi
3:50 PM52 °FRain. Mostly cloudy.8 mph100%29.92 "Hg3 mi
3:20 PM50 °FDrizzle. Mostly cloudy.10 mph100%29.92 "Hg2 mi
2:50 PM50 °FDrizzle. Mostly cloudy.12 mph100%29.92 "Hg2 mi
2:20 PM50 °FDrizzle. Partly sunny.10 mph100%29.92 "HgN/A
1:50 PM52 °FLight rain. Mostly cloudy.12 mph94%29.92 "HgN/A
1:20 PM52 °FLight rain. Partly sunny.12 mph94%29.92 "HgN/A
12:50 PM50 °FLight rain. Mostly cloudy.14 mph100%29.89 "HgN/A
12:20 PM50 °FMostly cloudy.15 mph100%29.89 "HgN/A
11:50 AM52 °FMostly cloudy.16 mph94%29.89 "HgN/A
11:20 AM50 °FPartly sunny.16 mph100%29.89 "HgN/A
10:50 AM50 °FRain. Partly sunny.17 mph94%29.89 "Hg6 mi
10:20 AM50 °FRain. Partly sunny.17 mph94%29.89 "HgN/A
9:50 AM50 °FRain. Partly sunny.18 mph94%29.86 "HgN/A
9:20 AM50 °FPartly sunny.16 mph94%29.86 "HgN/A
8:50 AM50 °FBroken clouds.16 mph88%29.86 "HgN/A
8:20 AM50 °FPartly sunny.15 mph88%29.86 "HgN/A
7:50 AM50 °FScattered clouds.15 mph88%29.86 "HgN/A
7:20 AM50 °FScattered clouds.13 mph94%29.86 "HgN/A
6:50 AM50 °FPassing clouds.13 mph88%29.83 "HgN/A
6:20 AM50 °FPassing clouds.12 mph88%29.83 "HgN/A
5:50 AM48 °FPartly cloudy.8 mph100%29.83 "HgN/A
5:20 AM46 °FPassing clouds.7 mph100%29.83 "HgN/A
Weather by CustomWeather, © 2014

See weather overview